Volver al catálogo

STARLINK-4263

ActivoComunicacionesVLEO
NORAD 53010·PAYLOAD·🇺🇸 United States

Lanzado Jul 7, 2022 desde Cape Canaveral Space Force Station

Loading…

Próximos Pases (próximas 24 horas)

TLE

ActualizadoSource: CelesTrak SupGP

Época: Sep 14, 2026, 22:17 UTC

1 53010C 22076AA  26257.92895833  .00012416  00000+0  36691-3 0  2573
2 53010  53.1574 310.1149 0001221  90.1975 318.1649 15.34377556    11

Sigue STARLINK-4263 en tiempo real con AllMySat

Download on the App Store